Flag for Finland Weather past 2 weeks in Rovaniemi, Finland

Now
32 °F

Light snow. Partly cloudy.


Feels Like: 29 °F
Forecast: 18 / 33 °F
Wind: 3 mph from Northeast

Location: Rovaniemi Airport

Current Time: Mar 4, 2015 at 7:31:07 PM

Latest Report: Mar 4, 2015 at 6:50 PM


Visibility: 1 mi

Pressure: 29.74 "Hg

Humidity: 100%

Dew point: 32 °F

Location of RovaniemiLocation

Historic Weather in Rovaniemi — Graph

°F

Rovaniemi temperature yesterday

Maximum temperature yesterday: 32 °F (at 12:20 AM)
Minimum temperature yesterday: 32 °F (at 12:20 AM)
Average temperature yesterday: 32 °F

Past Weeks' High & Low Weather Summary

 TemperatureHumidityPressure
High36 °F (Feb 20, 1:20 AM)100% (Feb 17, 9:20 PM)29.95 "Hg (Feb 17, 9:20 PM)
Low16 °F (Feb 23, 7:20 AM)69% (Feb 18, 2:20 PM)29.00 "Hg (Feb 20, 4:20 PM)
Average30 °F95%29.47 "Hg
* Reported Feb 17 6:20 PM — Mar 4 6:20 PM, Rovaniemi, Weather by CustomWeather, © 2015

Note: Actual official high and low records may vary slightly from our data, if they occured in-between our weather recording intervals... More about our weather records

Advertising

Rovaniemi weather history for previous 24 hours

 ConditionsComfort  
Time TempWeatherWind HumidityBarometerVisibility
6:20 PM
Wed, Mar 4
32 °FIce fog.5 mph100%29.71 "Hg2 mi
5:50 PM32 °FLight snow. Partly cloudy.3 mph100%29.71 "Hg4 mi
5:20 PM32 °FLight snow. Partly sunny.3 mph100%29.71 "Hg4 mi
4:50 PM32 °FLight snow. Broken clouds.3 mph100%29.71 "Hg2 mi
4:20 PM34 °FLight snow. Broken clouds.5 mph100%29.68 "HgN/A
3:50 PM32 °FLight rain. Cloudy.2 mph100%29.68 "Hg4 mi
3:20 PM34 °FSleet. Broken clouds.3 mph100%29.68 "Hg2 mi
2:50 PM34 °FLight rain. Partly sunny.5 mph100%29.68 "HgN/A
2:20 PM32 °FPartly sunny.5 mph100%29.65 "HgN/A
1:50 PM32 °FBroken clouds.6 mph100%29.65 "HgN/A
1:20 PM32 °FLight rain. Broken clouds.5 mph100%29.65 "Hg2 mi
12:50 PM32 °FLight snow. Mostly cloudy.5 mph100%29.65 "Hg2 mi
12:20 PM32 °FLight snow. Cloudy.5 mph100%29.65 "Hg3 mi
11:50 AM32 °FLight snow. More clouds than sun.5 mph100%29.65 "Hg1 mi
11:20 AM32 °FLight snow. Cloudy.5 mph100%29.65 "Hg1 mi
10:50 AM32 °FLight snow. Cloudy.6 mph100%29.62 "Hg1 mi
10:20 AM32 °FLight snow. More clouds than sun.5 mph100%29.62 "Hg1 mi
9:50 AM32 °FSnow. Mostly cloudy.6 mph100%29.62 "Hg1 mi
9:20 AM32 °FSnow. Broken clouds.5 mph100%29.62 "Hg1 mi
8:50 AM32 °FSnow. Cloudy.6 mph100%29.62 "Hg1 mi
8:20 AM32 °FSnow. Mostly cloudy.8 mph100%29.62 "Hg1 mi
7:50 AM32 °FSnow. Broken clouds.6 mph100%29.62 "Hg1 mi
7:20 AM32 °FLight snow. Ice fog.6 mph100%29.62 "Hg1 mi
6:50 AM32 °FIce fog.7 mph100%29.62 "Hg1 mi
6:20 AM32 °FLight snow. Dense fog.5 mph100%29.62 "Hg1 mi
5:50 AM32 °FIce fog.5 mph100%29.62 "Hg2 mi
5:20 AM32 °FIce fog.6 mph100%29.62 "Hg1 mi
4:50 AM32 °FFog.5 mph100%29.62 "Hg0 mi
4:20 AM32 °FFog.5 mph100%29.62 "Hg0 mi
3:50 AM32 °FFog.6 mph100%29.62 "Hg0 mi
3:20 AM32 °FFog.3 mph100%29.65 "Hg0 mi
2:50 AM32 °FFog.3 mph100%29.65 "Hg1 mi
2:20 AM32 °FFog.3 mph100%29.65 "Hg0 mi
1:50 AM32 °FFog.3 mph100%29.65 "Hg0 mi
1:20 AM32 °FFog.3 mph100%29.65 "Hg0 mi
12:50 AM32 °FFog.3 mph100%29.65 "Hg0 mi
12:20 AM32 °FFog.2 mph100%29.65 "Hg0 mi
11:20 PM
Tue, Mar 3
32 °FIce fog.3 mph100%29.65 "Hg2 mi
10:50 PM32 °FPassing clouds.2 mph100%29.65 "Hg4 mi
10:20 PM32 °FPassing clouds.5 mph100%29.65 "Hg6 mi
9:50 PM32 °FSnow flurries. Passing clouds.6 mph100%29.65 "HgN/A
9:20 PM32 °FLight snow. Passing clouds.5 mph100%29.62 "Hg6 mi
8:50 PM32 °FLight snow. Passing clouds.5 mph100%29.62 "Hg5 mi
8:20 PM32 °FPassing clouds.5 mph100%29.62 "Hg5 mi
7:50 PM32 °FPassing clouds.5 mph100%29.62 "HgN/A
7:20 PM32 °FMostly cloudy.5 mph100%29.62 "HgN/A
Weather by CustomWeather, © 2015

See weather overviewHow to use our weather pages